DW4075 Weather Reports


Display with metric or nautical units.
time (UTC)temp
F
wind
direction
speed
MPH
gust
MPH
rain 1hr
in
rain 24hr
in
rain mn
in
humidity
%
barometer
mb
20260506073448 40 223 2.0 4.0 0.00 0.01 0.00 84 1007.1
20260506072946 40 223 2.0 5.0 0.00 0.01 0.00 84 1007.0
20260506072445 40 223 2.0 6.0 0.00 0.01 0.00 84 1007.2
20260506071945 40 223 3.0 6.0 0.00 0.01 0.00 84 1007.4
20260506071658 40 223 3.0 8.0 0.00 0.01 0.00 84 1007.4
20260506071645 40 223 3.0 8.0 0.00 0.01 0.00 84 1007.5
20260506070441 40 224 4.0 9.0 0.00 0.01 0.00 83 1007.4
20260506061937 41 183 3.0 7.0 0.00 0.01 0.00 79 1007.2
20260506061436 41 173 2.0 6.0 0.00 0.01 0.00 79 1007.0
20260506060935 41 173 1.0 6.0 0.00 0.01 0.00 79 1007.0
20260506060657 42 173 0.0 6.0 0.00 0.01 0.00 78 1007.1
20260506051410 44 282 4.0 8.0 0.01 0.01 0.01 74 1007.5
20260506050908 44 186 4.0 9.0 0.01 0.01 0.01 77 1007.5
20260506050404 44 193 4.0 9.0 0.01 0.01 0.01 77 1007.8
20260506050131 44 198 4.0 9.0 0.01 0.01 0.01 77 1007.8
20260506044903 44 279 11.0 27.0 0.01 0.01 0.01 75 1007.6
20260506044403 45 262 11.0 27.0 0.01 0.01 0.01 73 1008.2
20260506043903 45 282 10.0 22.0 0.01 0.01 0.01 74 1008.6
20260506043403 45 274 6.0 22.0 0.01 0.01 0.01 72 1008.3
20260506042903 45 292 1.0 19.0 0.00 0.00 0.00 78 1008.3
20260506042630 45 214 2.0 7.0 0.00 0.00 0.00 80 1008.1
20260506041906 45 214 3.0 7.0 0.00 0.00 0.00 79 1008.2
20260506041623 45 213 2.0 9.0 0.00 0.00 0.00 75 1008.0
20260506040853 44 180 2.0 9.0 0.00 0.00 0.00 74 1007.1
20260506040353 44 215 2.0 5.0 0.00 0.00 0.00 77 1006.7
20260506035841 44 216 1.0 4.0 0.00 0.00 0.00 77 1006.7
20260506035338 44 216 1.0 4.0 0.00 0.00 0.00 77 1006.7
20260506034835 44 216 1.0 5.0 0.00 0.00 0.00 76 1006.7
20260506034331 45 216 1.0 5.0 0.00 0.00 0.00 77 1006.9
20260506033822 45 216 1.0 5.0 0.00 0.00 0.00 76 1007.0
20260506033311 45 216 1.0 4.0 0.00 0.00 0.00 77 1007.0
20260506032808 45 216 2.0 7.0 0.00 0.00 0.00 76 1007.4
20260506032515 45 216 3.0 7.0 0.00 0.00 0.00 75 1007.7
20260506032014 45 216 3.0 6.0 0.00 0.00 0.00 75 1008.1
20260506031521 45 215 4.0 10.0 0.00 0.00 0.00 75 1007.8
20260506031005 45 215 4.0 10.0 0.00 0.00 0.00 74 1007.7
20260506030730 46 234 3.0 8.0 0.00 0.00 0.00 75 1007.7
20260506030005 46 265 5.0 14.0 0.00 0.00 0.00 74 1008.0
20260506025238 46 279 7.0 14.0 0.00 0.00 0.00 72 1008.0
20260506024733 46 271 6.0 13.0 0.00 0.00 0.00 73 1007.5
20260506024232 46 284 7.0 15.0 0.00 0.00 0.00 74 1007.1
20260506023952 46 277 8.0 15.0 0.00 0.00 0.00 74 1006.9
20260506023231 47 320 10.0 20.0 0.00 0.00 0.00 73 1007.1
20260506022733 48 294 10.0 20.0 0.00 0.00 0.00 71 1007.4
20260506022231 48 288 7.0 18.0 0.00 0.00 0.00 69 1007.4
20260506021732 48 299 6.0 12.0 0.00 0.00 0.00 63 1006.9
20260506021231 47 285 4.0 11.0 0.00 0.00 0.00 64 1006.4
20260506020730 47 313 3.0 10.0 0.00 0.00 0.00 65 1006.0
20260506020231 47 318 4.0 11.0 0.00 0.00 0.00 65 1005.9
20260506015730 48 317 6.0 13.0 0.00 0.00 0.00 65 1006.1
20260506015218 48 324 7.0 14.0 0.00 0.00 0.00 63 1006.4
20260506014929 49 274 8.0 15.0 0.00 0.00 0.00 60 1007.1
20260506014920 49 286 7.0 14.0 0.00 0.00 0.00 61 1006.9
20260506013715 49 255 9.0 15.0 0.00 0.00 0.00 59 1007.5
20260506013216 50 280 10.0 19.0 0.00 0.00 0.00 57 1007.6
20260506012713 51 265 10.0 19.0 0.00 0.00 0.00 55 1007.8
20260506012213 52 267 10.0 16.0 0.00 0.00 0.00 53 1008.4
20260506011714 53 273 10.0 19.0 0.00 0.00 0.00 53 1008.7
20260506011210 54 267 12.0 22.0 0.00 0.00 0.00 50 1008.9
20260506010707 55 271 11.0 22.0 0.00 0.00 0.00 44 1008.7
20260506010208 56 242 9.0 21.0 0.00 0.00 0.00 41 1008.8
20260506005705 56 279 8.0 16.0 0.00 0.00 0.00 45 1008.8
20260506005420 57 289 9.0 16.0 0.00 0.00 0.00 43 1008.8
20260506004659 57 303 7.0 14.0 0.00 0.00 0.00 42 1008.6
20260506004153 58 282 6.0 13.0 0.00 0.00 0.00 42 1008.8
20260506003654 58 285 7.0 14.0 0.00 0.00 0.00 40 1009.1
20260506003404 59 310 7.0 14.0 0.00 0.00 0.00 39 1009.4
20260506002642 60 265 8.0 14.0 0.00 0.00 0.00 37 1009.7
20260506002142 61 257 8.0 15.0 0.00 0.00 0.00 35 1010.0
20260506001642 62 286 7.0 15.0 0.00 0.00 0.00 36 1010.6
20260506001141 62 219 8.0 14.0 0.00 0.00 0.00 36 1010.5
20260506000642 63 227 9.0 20.0 0.00 0.00 0.00 35 1010.5
20260506000401 63 255 8.0 20.0 0.00 0.00 0.00 36 1010.6
20260505235639 63 171 8.0 18.0 0.00 0.00 0.00 36 1010.8
20260505235140 63 223 7.0 14.0 0.00 0.00 0.00 37 1010.4
20260505234859 62 242 6.0 14.0 0.00 0.00 0.00 37 1010.2
20260505234139 62 207 6.0 12.0 0.00 0.00 0.00 40 1010.0
20260505233638 62 259 5.0 12.0 0.00 0.00 0.00 39 1009.9
20260505233138 62 267 5.0 11.0 0.00 0.00 0.00 40 1009.7
20260505232858 61 255 6.0 11.0 0.00 0.00 0.00 42 1009.3
20260505232136 60 299 9.0 24.0 0.00 0.00 0.00 44 1009.1
20260505231630 59 254 11.0 24.0 0.00 0.00 0.00 50 1008.9
20260505231130 60 265 11.0 21.0 0.00 0.00 0.00 41 1009.1
20260505230630 60 232 12.0 25.0 0.00 0.00 0.00 40 1009.1
20260505230130 60 252 11.0 25.0 0.00 0.00 0.00 39 1009.1
20260505225625 61 219 11.0 24.0 0.00 0.00 0.00 40 1008.8
20260505225117 60 232 12.0 25.0 0.00 0.00 0.00 41 1008.6
20260505224612 61 215 12.0 25.0 0.00 0.00 0.00 42 1008.4
20260505224107 60 161 11.0 25.0 0.00 0.00 0.00 43 1008.4
20260505223605 61 170 10.0 21.0 0.00 0.00 0.00 42 1008.9
20260505223105 61 206 9.0 16.0 0.00 0.00 0.00 42 1009.2
20260505222605 62 183 9.0 16.0 0.00 0.00 0.00 42 1009.3
20260505222105 62 188 9.0 16.0 0.00 0.00 0.00 41 1009.5
20260505221605 62 155 7.0 15.0 0.00 0.00 0.00 41 1009.8
20260505221104 62 188 7.0 18.0 0.00 0.00 0.00 40 1009.8
20260505220604 63 159 7.0 18.0 0.00 0.00 0.00 39 1009.8
20260505220325 63 177 7.0 14.0 0.00 0.00 0.00 39 1010.3
20260505215603 64 150 7.0 14.0 0.00 0.00 0.00 38 1010.6
20260505215103 64 171 8.0 12.0 0.00 0.00 0.00 39 1010.6
20260505214602 64 215 8.0 18.0 0.00 0.00 0.00 40 1010.6
20260505214105 64 174 9.0 19.0 0.00 0.00 0.00 39 1010.8
20260505213824 64 180 9.0 19.0 0.00 0.00 0.00 38 1011.0
20260505213103 65 163 8.0 15.0 0.00 0.00 0.00 37 1011.2
20260505212603 64 190 8.0 15.0 0.00 0.00 0.00 39 1011.1
20260505212329 63 218 8.0 14.0 0.00 0.00 0.00 40 1010.8
20260505211603 63 205 7.0 14.0 0.00 0.00 0.00 39 1010.9
20260505211103 63 161 7.0 16.0 0.00 0.00 0.00 38 1011.0
20260505210604 64 153 7.0 16.0 0.00 0.00 0.00 37 1011.4
20260505210103 64 234 5.0 14.0 0.00 0.00 0.00 37 1011.4
20260505205603 64 220 6.0 13.0 0.00 0.00 0.00 37 1011.5
20260505205103 64 184 7.0 13.0 0.00 0.00 0.00 37 1011.5
20260505204552 64 180 7.0 12.0 0.00 0.00 0.00 39 1011.6
20260505204049 63 197 7.0 16.0 0.00 0.00 0.00 38 1011.6
20260505203540 64 198 5.0 16.0 0.00 0.00 0.00 39 1011.9
20260505203041 63 190 5.0 13.0 0.00 0.00 0.00 41 1011.7
20260505202749 62 246 7.0 14.0 0.00 0.00 0.00 42 1011.5
20260505202024 62 152 7.0 15.0 0.00 0.00 0.00 41 1011.5
20260505201750 62 182 8.0 15.0 0.00 0.00 0.00 42 1011.1
20260505201019 61 198 9.0 16.0 0.00 0.00 0.00 43 1011.0
20260505200747 61 161 10.0 16.0 0.00 0.00 0.00 41 1011.1
20260505200019 62 163 10.0 18.0 0.00 0.00 0.00 41 1011.5
20260505195518 62 199 9.0 18.0 0.00 0.00 0.00 40 1011.6
20260505195016 63 168 9.0 18.0 0.00 0.00 0.00 40 1011.9
20260505194516 62 194 9.0 19.0 0.00 0.00 0.00 40 1011.6
20260505194013 62 176 10.0 19.0 0.00 0.00 0.00 40 1011.6
20260505193734 62 168 9.0 18.0 0.00 0.00 0.00 40 1011.6
20260505193010 62 182 8.0 16.0 0.00 0.00 0.00 42 1011.7
20260505192505 62 206 8.0 19.0 0.00 0.00 0.00 42 1011.4
20260505192005 61 137 9.0 19.0 0.00 0.00 0.00 44 1011.0
20260505191507 60 184 9.0 21.0 0.00 0.00 0.00 46 1010.8
20260505191229 60 168 7.0 21.0 0.00 0.00 0.00 44 1010.8
20260505190506 60 213 7.0 15.0 0.00 0.00 0.00 42 1010.8
20260505190004 60 178 9.0 20.0 0.00 0.00 0.00 42 1010.9
20260505185503 60 181 9.0 20.0 0.00 0.00 0.00 43 1010.8
20260505185003 60 186 7.0 16.0 0.00 0.00 0.00 45 1010.5
20260505184503 59 272 6.0 16.0 0.00 0.00 0.00 45 1010.3
20260505183957 59 227 6.0 16.0 0.00 0.00 0.00 44 1010.4
20260505183458 59 237 6.0 13.0 0.00 0.00 0.00 41 1010.3
20260505182957 59 211 8.0 14.0 0.00 0.00 0.00 40 1010.2
20260505182457 60 240 6.0 14.0 0.00 0.00 0.00 39 1010.4
20260505181958 60 231 5.0 15.0 0.00 0.00 0.00 39 1010.4
20260505181458 60 191 7.0 15.0 0.00 0.00 0.00 38 1010.5
20260505180955 61 192 7.0 12.0 0.00 0.00 0.00 37 1011.0
20260505180455 61 224 6.0 12.0 0.00 0.00 0.00 37 1010.9
20260505180438 62 203 6.0 14.0 0.00 0.00 0.00 37 1010.9
20260505175454 62 232 5.0 14.0 0.00 0.00 0.00 35 1011.0
20260505175213 62 198 4.0 10.0 0.00 0.00 0.00 36 1011.0
20260505174454 61 163 4.0 11.0 0.00 0.00 0.00 36 1010.8
20260505173949 61 150 4.0 11.0 0.00 0.00 0.00 37 1010.8
20260505173709 61 232 4.0 11.0 0.00 0.00 0.00 37 1010.8
20260505172941 61 240 5.0 11.0 0.00 0.00 0.00 36 1010.9
20260505172440 61 221 4.0 9.0 0.00 0.00 0.00 37 1011.1
20260505171939 60 217 3.0 7.0 0.00 0.00 0.00 37 1010.9
20260505171437 60 229 4.0 8.0 0.00 0.00 0.00 36 1010.6
20260505170935 60 229 5.0 9.0 0.00 0.00 0.00 36 1011.0
20260505170431 61 191 4.0 10.0 0.00 0.00 0.00 37 1011.1
20260505165931 60 181 4.0 10.0 0.00 0.00 0.00 36 1010.8
20260505165653 60 243 5.0 10.0 0.00 0.00 0.00 37 1010.8
20260505164931 60 224 4.0 10.0 0.00 0.00 0.00 38 1010.6
20260505164431 59 246 3.0 9.0 0.00 0.00 0.00 39 1010.4
20260505164150 58 236 4.0 9.0 0.00 0.00 0.00 39 1010.4
20260505163432 58 221 4.0 8.0 0.00 0.00 0.00 39 1010.5
20260505163150 58 228 4.0 8.0 0.00 0.00 0.00 39 1010.4
20260505162431 58 243 4.0 8.0 0.00 0.00 0.00 39 1010.5
20260505161928 58 247 3.0 8.0 0.00 0.00 0.00 39 1010.3
20260505161417 58 227 2.0 8.0 0.00 0.00 0.00 39 1010.4
20260505160915 58 192 3.0 7.0 0.00 0.00 0.00 39 1010.3
20260505160626 57 184 3.0 7.0 0.00 0.00 0.00 39 1010.2
20260505160128 57 288 1.0 5.0 0.00 0.00 0.00 39 1010.2
20260505153126 57 0 1.0 6.0 0.00 0.00 0.00 42 1010.2
20260505152403 56 347 3.0 9.0 0.00 0.00 0.00 42 1009.9
20260505152121 56 344 5.0 9.0 0.00 0.00 0.00 44 1010.0
20260505151354 56 333 5.0 9.0 0.00 0.00 0.00 45 1009.8
20260505150854 55 313 4.0 9.0 0.00 0.00 0.00 45 1009.8
20260505150353 55 317 3.0 7.0 0.00 0.00 0.00 44 1009.8
20260505140331 54 276 5.0 9.0 0.00 0.00 0.00 48 1009.4
20260505130240 49 321 1.0 3.0 0.00 0.00 0.00 54 1007.6
20260505124732 46 321 0.0 1.0 0.00 0.00 0.00 54 1006.5
20260505124231 46 321 0.0 1.0 0.00 0.00 0.00 53 1006.4
20260505123718 46 321 0.0 2.0 0.00 0.00 0.00 52 1006.4
20260505123206 46 321 1.0 4.0 0.00 0.00 0.00 52 1006.5
20260505122704 47 321 2.0 4.0 0.00 0.00 0.00 52 1006.5
20260505122204 47 321 1.0 4.0 0.00 0.00 0.00 51 1006.7
20260505121704 47 321 1.0 4.0 0.00 0.00 0.00 51 1006.9
20260505121203 48 321 0.0 2.0 0.00 0.00 0.00 50 1006.9
20260505120703 48 321 0.0 2.0 0.00 0.00 0.00 50 1007.0
20260505120209 48 321 1.0 3.0 0.00 0.00 0.00 49 1007.0
20260505115913 49 321 1.0 3.0 0.00 0.00 0.00 49 1007.0
20260505115144 49 321 0.0 2.0 0.00 0.00 0.00 48 1006.9
20260505114643 49 321 0.0 0.0 0.00 0.00 0.00 48 1007.0
20260505114140 49 321 0.0 2.0 0.00 0.00 0.00 47 1007.2
20260505113631 49 321 0.0 2.0 0.00 0.00 0.00 47 1007.5
20260505113133 50 321 0.0 1.0 0.00 0.00 0.00 47 1007.7
20260505112632 50 321 0.0 1.0 0.00 0.00 0.00 46 1007.8
20260505112127 50 321 0.0 1.0 0.00 0.00 0.00 46 1008.0
20260505111626 50 321 0.0 2.0 0.00 0.00 0.00 46 1008.0
20260505111345 51 321 0.0 2.0 0.00 0.00 0.00 46 1008.1
20260505110627 51 321 0.0 1.0 0.00 0.00 0.00 45 1008.2
20260505110119 51 321 0.0 1.0 0.00 0.00 0.00 45 1008.2
20260505101603 52 321 0.0 1.0 0.00 0.00 0.00 42 1008.6
20260505101104 52 321 0.0 2.0 0.00 0.00 0.00 42 1008.6
20260505100603 52 321 0.0 3.0 0.00 0.00 0.00 41 1008.6
20260505095604 53 321 0.0 5.0 0.00 0.00 0.00 40 1008.7
20260505095059 53 317 0.0 4.0 0.00 0.00 0.00 39 1008.8
20260505094558 53 317 1.0 5.0 0.00 0.00 0.00 39 1008.8
20260505094053 53 317 2.0 6.0 0.00 0.00 0.00 39 1009.1
20260505093812 53 318 3.0 9.0 0.00 0.00 0.00 39 1008.7
20260505093044 53 319 3.0 9.0 0.00 0.00 0.00 38 1008.8
20260505092543 53 304 3.0 7.0 0.00 0.00 0.00 38 1008.9
20260505092033 53 298 3.0 6.0 0.00 0.00 0.00 37 1009.1
20260505091532 53 298 1.0 6.0 0.00 0.00 0.00 38 1008.9
20260505091032 54 298 1.0 4.0 0.00 0.00 0.00 38 1009.1
20260505090531 54 298 1.0 4.0 0.00 0.00 0.00 38 1009.2
20260505090031 54 298 2.0 7.0 0.00 0.00 0.00 38 1009.4
20260505085531 54 298 4.0 8.0 0.00 0.00 0.00 37 1009.4
20260505085259 55 293 4.0 9.0 0.00 0.00 0.00 37 1009.5
20260505084532 55 290 4.0 9.0 0.00 0.00 0.00 37 1009.8
20260505084032 55 286 3.0 9.0 0.00 0.00 0.00 38 1009.9
20260505083802 55 254 2.0 5.0 0.00 0.00 0.00 38 1010.0
20260505083026 55 254 2.0 6.0 0.00 0.00 0.00 38 1010.2
20260505082518 55 253 2.0 6.0 0.00 0.00 0.00 37 1010.2
20260505082015 55 250 3.0 8.0 0.00 0.00 0.00 37 1010.3
20260505081513 55 252 3.0 8.0 0.00 0.00 0.00 37 1010.3
20260505081011 54 254 2.0 6.0 0.00 0.00 0.00 37 1010.0
20260505080511 54 254 1.0 4.0 0.00 0.00 0.00 37 1009.9
20260505080006 54 254 1.0 5.0 0.00 0.00 0.00 36 1010.2
20260505075723 54 254 1.0 5.0 0.00 0.00 0.00 36 1009.8
20260505075004 54 254 1.0 4.0 0.00 0.00 0.00 36 1009.9
20260505074503 54 254 0.0 4.0 0.00 0.00 0.00 35 1009.8